| time (UTC) | temp F | wind direction | speed knots | gust knots | rain 1hr in | rain 24hr in | rain mn in | humidity % | barometer mb |
| 20260904231557 | 85 | 180 | 0.9 | 8.7 | 0.00 | 0.00 | 0.00 | 40 | 1011.9 |
| 20260904230056 | 85 | 226 | 1.7 | 5.2 | 0.00 | 0.00 | 0.00 | 41 | 1011.9 |
| 20260904224555 | 85 | 204 | 2.6 | 7.8 | 0.00 | 0.00 | 0.00 | 40 | 1011.9 |
| 20260904223053 | 85 | 220 | 3.5 | 8.7 | 0.00 | 0.00 | 0.00 | 40 | 1012.0 |
| 20260904221555 | 86 | 175 | 3.5 | 8.7 | 0.00 | 0.00 | 0.00 | 40 | 1012.1 |
| 20260904220049 | 86 | 159 | 3.5 | 9.6 | 0.00 | 0.00 | 0.00 | 40 | 1012.3 |
| 20260904214557 | 86 | 160 | 5.2 | 10.4 | 0.00 | 0.00 | 0.00 | 40 | 1012.2 |
| 20260904213048 | 87 | 224 | 3.5 | 8.7 | 0.00 | 0.00 | 0.00 | 40 | 1012.2 |
| 20260904211548 | 87 | 178 | 2.6 | 10.4 | 0.00 | 0.00 | 0.00 | 38 | 1012.2 |
| 20260904210046 | 88 | 159 | 4.3 | 11.3 | 0.00 | 0.00 | 0.00 | 39 | 1012.3 |
| 20260904204545 | 88 | 258 | 3.5 | 7.8 | 0.00 | 0.00 | 0.00 | 39 | 1012.2 |
| 20260904203041 | 87 | 144 | 4.3 | 9.6 | 0.00 | 0.00 | 0.00 | 40 | 1012.4 |
| 20260904201540 | 86 | 213 | 2.6 | 7.8 | 0.00 | 0.00 | 0.00 | 40 | 1012.4 |
| 20260904200039 | 88 | 172 | 0.9 | 7.8 | 0.00 | 0.00 | 0.00 | 38 | 1012.4 |
| 20260904194538 | 87 | 149 | 2.6 | 8.7 | 0.00 | 0.00 | 0.00 | 37 | 1012.6 |
| 20260904193035 | 85 | 153 | 2.6 | 6.1 | 0.00 | 0.00 | 0.00 | 38 | 1012.6 |
| 20260904191533 | 85 | 197 | 2.6 | 7.0 | 0.00 | 0.00 | 0.00 | 38 | 1012.9 |
| 20260904190029 | 83 | 255 | 0.9 | 8.7 | 0.00 | 0.00 | 0.00 | 42 | 1013.1 |
| 20260904184528 | 83 | 149 | 1.7 | 6.1 | 0.00 | 0.00 | 0.00 | 42 | 1013.3 |
| 20260904183027 | 82 | 174 | 2.6 | 6.1 | 0.00 | 0.00 | 0.00 | 45 | 1013.4 |
| 20260904181525 | 80 | 180 | 0.9 | 5.2 | 0.00 | 0.00 | 0.00 | 45 | 1013.5 |
| 20260904180119 | 79 | 228 | 1.7 | 5.2 | 0.00 | 0.00 | 0.00 | 51 | 1013.5 |
| 20260904174514 | 78 | 188 | 0.9 | 6.1 | 0.00 | 0.00 | 0.00 | 52 | 1013.6 |
| 20260904173017 | 77 | 169 | 0.9 | 5.2 | 0.00 | 0.00 | 0.00 | 55 | 1013.7 |
| 20260904171513 | 75 | 253 | 2.6 | 5.2 | 0.00 | 0.00 | 0.00 | 58 | 1013.7 |
| 20260904170002 | 74 | 197 | 0.9 | 5.2 | 0.00 | 0.00 | 0.00 | 62 | 1013.8 |
| 20260904164615 | 73 | 264 | 1.7 | 6.1 | 0.00 | 0.00 | 0.00 | 64 | 1013.7 |
| 20260904163052 | 72 | 247 | 0.0 | 3.5 | 0.00 | 0.00 | 0.00 | 67 | 1013.7 |
| 20260904161556 | 71 | 256 | 1.7 | 4.3 | 0.00 | 0.00 | 0.00 | 69 | 1013.5 |
| 20260904160044 | 69 | 253 | 0.0 | 3.5 | 0.00 | 0.00 | 0.00 | 71 | 1013.4 |
| 20260904154543 | 68 | 149 | 0.0 | 3.5 | 0.00 | 0.00 | 0.00 | 72 | 1013.5 |
| 20260904153041 | 67 | 44 | 0.0 | 3.5 | 0.00 | 0.00 | 0.00 | 74 | 1013.4 |
| 20260904151533 | 66 | 46 | 0.0 | 3.5 | 0.00 | 0.00 | 0.00 | 76 | 1013.3 |
| 20260904150026 | 65 | 24 | 0.9 | 2.6 | 0.00 | 0.00 | 0.00 | 79 | 1013.2 |
| 20260904144521 | 65 | 95 | 0.0 | 4.3 | 0.00 | 0.00 | 0.00 | 80 | 1013.2 |
| 20260904143019 | 64 | 93 | 0.9 | 3.5 | 0.00 | 0.00 | 0.00 | 81 | 1013.1 |
| 20260904141514 | 64 | 109 | 1.7 | 5.2 | 0.00 | 0.00 | 0.00 | 82 | 1013.0 |
| 20260904140012 | 64 | 139 | 0.0 | 4.3 | 0.00 | 0.00 | 0.00 | 83 | 1012.8 |
| 20260904134505 | 64 | 123 | 0.0 | 4.3 | 0.00 | 0.00 | 0.00 | 83 | 1012.8 |
| 20260904133004 | 64 | 119 | 0.9 | 3.5 | 0.00 | 0.00 | 0.00 | 83 | 1012.8 |
| 20260904131502 | 64 | 53 | 0.0 | 0.0 | 0.00 | 0.00 | 0.00 | 83 | 1012.5 |
| 20260904130002 | 64 | 39 | 0.9 | 3.5 | 0.00 | 0.00 | 0.00 | 83 | 1012.4 |
| 20260904124501 | 64 | 357 | 0.0 | 3.5 | 0.00 | 0.00 | 0.00 | 84 | 1012.4 |
| 20260904123100 | 64 | 357 | 0.0 | 3.5 | 0.00 | 0.00 | 0.00 | 84 | 1012.3 |
| 20260904121600 | 64 | 6 | 0.9 | 4.3 | 0.00 | 0.00 | 0.00 | 84 | 1012.3 |
| 20260904114603 | 64 | 72 | 0.0 | 0.0 | 0.00 | 0.00 | 0.00 | 85 | 1012.5 |
| 20260904113057 | 64 | 6 | 0.0 | 0.0 | 0.00 | 0.00 | 0.00 | 85 | 1012.6 |
| 20260904111557 | 64 | 29 | 0.0 | 1.7 | 0.00 | 0.00 | 0.00 | 85 | 1012.5 |
| 20260904110055 | 64 | 328 | 0.0 | 0.0 | 0.00 | 0.00 | 0.00 | 85 | 1012.5 |
| 20260904104610 | 64 | 239 | 0.0 | 0.0 | 0.00 | 0.00 | 0.00 | 85 | 1012.5 |
| 20260904103059 | 64 | 239 | 0.0 | 0.0 | 0.00 | 0.00 | 0.00 | 86 | 1012.5 |
| 20260904101554 | 64 | 228 | 0.0 | 0.0 | 0.00 | 0.00 | 0.00 | 86 | 1012.4 |
| 20260904100112 | 64 | 228 | 0.0 | 0.0 | 0.00 | 0.00 | 0.00 | 86 | 1012.5 |
| 20260904094600 | 63 | 155 | 0.0 | 0.0 | 0.00 | 0.00 | 0.00 | 86 | 1012.4 |
| 20260904093052 | 63 | 155 | 0.0 | 0.0 | 0.00 | 0.00 | 0.00 | 86 | 1012.4 |
| 20260904091551 | 63 | 155 | 0.0 | 0.0 | 0.00 | 0.00 | 0.00 | 86 | 1012.4 |
| 20260904090050 | 63 | 155 | 0.0 | 0.0 | 0.00 | 0.00 | 0.00 | 86 | 1012.5 |
| 20260904084549 | 63 | 155 | 0.0 | 0.0 | 0.00 | 0.00 | 0.00 | 86 | 1012.5 |
| 20260904083050 | 62 | 155 | 0.0 | 0.0 | 0.00 | 0.00 | 0.00 | 85 | 1012.6 |
| 20260904081546 | 62 | 155 | 0.0 | 0.0 | 0.00 | 0.00 | 0.00 | 84 | 1012.7 |
| 20260904080044 | 62 | 155 | 0.0 | 0.0 | 0.00 | 0.00 | 0.00 | 84 | 1012.7 |
| 20260904074543 | 63 | 155 | 0.0 | 0.0 | 0.00 | 0.00 | 0.00 | 83 | 1012.8 |
| 20260904073040 | 63 | 155 | 0.0 | 0.0 | 0.00 | 0.00 | 0.00 | 82 | 1012.7 |
| 20260904071538 | 63 | 155 | 0.0 | 0.0 | 0.00 | 0.00 | 0.00 | 82 | 1012.8 |
| 20260904070041 | 64 | 155 | 0.0 | 0.0 | 0.00 | 0.00 | 0.00 | 81 | 1012.8 |
| 20260904064533 | 64 | 155 | 0.0 | 0.0 | 0.00 | 0.00 | 0.00 | 81 | 1012.9 |
| 20260904063035 | 65 | 155 | 0.0 | 0.0 | 0.00 | 0.00 | 0.00 | 80 | 1012.8 |
| 20260904061532 | 65 | 155 | 0.0 | 0.0 | 0.00 | 0.00 | 0.00 | 80 | 1012.6 |
| 20260904060057 | 65 | 155 | 0.0 | 0.0 | 0.00 | 0.00 | 0.00 | 79 | 1012.7 |
| 20260904054531 | 66 | 155 | 0.0 | 0.0 | 0.00 | 0.00 | 0.00 | 79 | 1012.8 |
| 20260904053100 | 66 | 155 | 0.0 | 1.7 | 0.00 | 0.00 | 0.00 | 78 | 1012.6 |
| 20260904051538 | 66 | 155 | 0.0 | 1.7 | 0.00 | 0.00 | 0.00 | 78 | 1012.8 |
| 20260904050034 | 67 | 155 | 0.0 | 1.7 | 0.00 | 0.00 | 0.00 | 77 | 1012.8 |
| 20260904044530 | 67 | 247 | 0.0 | 1.7 | 0.00 | 0.00 | 0.00 | 76 | 1012.7 |
| 20260904043029 | 68 | 213 | 0.0 | 1.7 | 0.00 | 0.00 | 0.00 | 75 | 1012.6 |
| 20260904041529 | 68 | 203 | 0.0 | 0.9 | 0.00 | 0.00 | 0.00 | 74 | 1012.6 |
| 20260904040028 | 69 | 209 | 0.0 | 0.9 | 0.00 | 0.00 | 0.00 | 73 | 1012.4 |
| 20260904034527 | 69 | 203 | 0.0 | 0.9 | 0.00 | 0.00 | 0.00 | 72 | 1012.4 |
| 20260904033027 | 69 | 224 | 0.0 | 1.7 | 0.00 | 0.00 | 0.00 | 71 | 1012.4 |
| 20260904031526 | 70 | 217 | 0.0 | 0.9 | 0.00 | 0.00 | 0.00 | 69 | 1012.2 |
| 20260904030026 | 71 | 243 | 0.0 | 5.2 | 0.00 | 0.00 | 0.00 | 68 | 1012.1 |
| 20260904024528 | 71 | 254 | 0.0 | 3.5 | 0.00 | 0.00 | 0.00 | 66 | 1012.1 |
| 20260904023024 | 72 | 236 | 0.0 | 1.7 | 0.00 | 0.00 | 0.00 | 65 | 1011.9 |
| 20260904021524 | 72 | 173 | 1.7 | 7.0 | 0.00 | 0.00 | 0.00 | 64 | 1011.8 |
| 20260904020023 | 73 | 267 | 1.7 | 5.2 | 0.00 | 0.00 | 0.00 | 63 | 1012.0 |
| 20260904014523 | 74 | 251 | 1.7 | 4.3 | 0.00 | 0.00 | 0.00 | 62 | 1011.9 |
| 20260904013023 | 76 | 157 | 0.9 | 5.2 | 0.00 | 0.00 | 0.00 | 59 | 1011.9 |
| 20260904011522 | 76 | 248 | 1.7 | 5.2 | 0.00 | 0.00 | 0.00 | 58 | 1012.0 |
| 20260904010021 | 78 | 255 | 1.7 | 6.1 | 0.00 | 0.00 | 0.00 | 56 | 1012.0 |
| 20260904004519 | 79 | 255 | 2.6 | 7.8 | 0.00 | 0.00 | 0.00 | 53 | 1012.0 |
| 20260904003019 | 79 | 163 | 2.6 | 7.8 | 0.00 | 0.00 | 0.00 | 49 | 1011.9 |
| 20260904001518 | 80 | 225 | 3.5 | 10.4 | 0.00 | 0.00 | 0.00 | 50 | 1011.8 |
| 20260904000015 | 82 | 158 | 3.5 | 7.0 | 0.00 | 0.00 | 0.00 | 49 | 1011.7 |
| 20260903234515 | 82 | 91 | 2.6 | 8.7 | 0.00 | 0.00 | 0.00 | 49 | 1011.7 |
| 20260903233012 | 83 | 199 | 3.5 | 9.6 | 0.00 | 0.00 | 0.00 | 49 | 1011.8 |